Location: Unspecified
(0.0000°N, 0.0000°E)
Time: 03:36:24
(UTC+00:00)

CORVUS BC2 - Pass Details

Date: 16 February 2026
Orbit: 540 x 560 km, 97.4° (Epoch: 6 March)

Event Time Altitude Azimuth Distance (km) Brightness Sun altitude
Rises 04:30:47 0° 174° (S) 2,747 ? -25.2°
Reaches altitude 10° 04:32:56 10° 176° (S) 1,850 ? -24.7°
Enters shadow 04:35:21 35° 187° (S) 918 ? -24.1°
